Orbital Elements at Epoch 2459000.5 (2020-May-31.0) TDB
Reference: JPL 16 (heliocentric ecliptic J2000)
Element | Value | Uncertainty (1-sigma) | Units |
e | .210604383596819 | 4.547e-08 | |
a | 2.415131915006965 | 7.3239e-09 | au |
q | 1.906494546741919 | 1.1076e-07 | au |
i | 2.07705592668137 | 4.8155e-06 | deg |
node | 166.1616464414763 | 0.00011634 | deg |
peri | 236.5264531418399 | 0.00011698 | deg |
M | 312.0713768436328 | 9.3409e-06 | deg |
tp | 2459183.016513784779 (2020-Nov-29.51651378) | 3.5592e-05 | TDB |
period | 1370.912424255431 3.75 | 6.236e-06 1.707e-08 | d yr |
n | .262598830990625 | 1.1945e-09 | deg/d |
Q | 2.923769283272013 | 8.8663e-09 | au |
|
| | Orbit Determination Parameters
Additional Information
|